Location: Aldenham
(51.6667°N, 0.3500°W)
Time: 21:11:40
(UTC+00:00)

Vanguard 2 Rocket - Pass Details

Date: 23 February 2026
Orbit: 553 x 3286 km, 32.9° (Epoch: 8 March)

Event Time Altitude Azimuth Distance (km) Brightness Sun altitude
Rises 12:28:26 0° 243° (WSW) 7,229 11.9 28.6°
Reaches altitude 10° 12:33:49 10° 237° (WSW) 6,229 11.8 28.5°
Maximum altitude 12:50:43 38° 179° (S) 3,841 12.2 28.1°
Drops below altitude 10° 13:03:21 10° 118° (ESE) 4,709 10.8 27.7°
Sets 13:06:45 0° 110° (ESE) 5,368 10.9 27.6°
